Coffeyville, KS

9:09 AM CDT on September 19, 2017 (GMT -0500)
Coffeyville Municipal

Weather History for KCFV - March, 2013

Change the Weather History Date:

Saturday, March 23, 2013

  Actual Average Record
Temperature  
Mean Temperature 39 °F -  
Max Temperature 42 °F 59 °F 80 °F (2016)
Min Temperature 37 °F 37 °F 21 °F (2002)
Degree Days  
Heating Degree Days 26    
Moisture  
Dew Point 37 °F    
Average Humidity 91    
Maximum Humidity 96    
Minimum Humidity 82    
Precipitation  
Precipitation 0.00 in - - ()
Sea Level Pressure  
Sea Level Pressure 29.87 in    
Wind  
Wind Speed 11 mph (NE)    
Max Wind Speed 21 mph    
Max Gust Speed 29 mph    
Visibility 4 miles    
Events Rain , Snow    
Averages and records for this station are not official NWS values.
T = Trace of Precipitation, MM = Missing Value Source: NWS Daily Summary

Daily Weather History Graph

Daily Weather History Graph

Search for Another Location

Airport or City:

Trip Planner

Search our weather history database for the weather conditions in past years. The results will help you decide how hot, cold, wet, or windy it might be!

Date:

Astronomy

Mar. 23, 2013 Rise Set
Actual Time 7:20 AM CDT 7:37 PM CDT
Civil Twilight 6:54 AM CDT 8:03 PM CDT
Nautical Twilight 6:24 AM CDT 8:33 PM CDT
Astronomical Twilight 5:53 AM CDT 9:04 PM CDT
Moon 4:09 PM CDT (3/23) 4:53 AM CDT (3/23)
Length of Visible Light 13h 08m
Length of Day
12h 16m
Waxing Gibbous, 85% of the Moon is Illuminated
Mar 23
Waxing Gibbous
Mar 27
Full
Apr 2
Last Quarter
Apr 10
New
Apr 18
First Quarter

Hourly Weather History & Observations

Time (CDT) Temp. Windchill Dew Point Humidity Pressure Visibility Wind Dir Wind Speed Gust Speed Precip Events Conditions
12:52 AM 39.0 °F 32.8 °F 34.0 °F 82% 29.97 in 8.0 mi NE 9.2 mph - N/A   Overcast
1:52 AM 39.0 °F 34.8 °F 35.1 °F 86% 29.98 in 8.0 mi NE 5.8 mph - N/A   Overcast
2:14 AM 39.2 °F 33.0 °F 35.6 °F 87% 29.94 in 7.0 mi NE 9.2 mph - N/A   Overcast
2:52 AM 37.9 °F 30.9 °F 35.1 °F 89% 29.93 in 7.0 mi NE 10.4 mph - N/A   Overcast
3:52 AM 37.9 °F 30.9 °F 35.1 °F 89% 29.92 in 6.0 mi NNE 10.4 mph - N/A   Overcast
4:52 AM 37.9 °F 30.9 °F 35.1 °F 89% 29.92 in 7.0 mi NNE 10.4 mph - N/A   Overcast
5:52 AM 37.9 °F 32.1 °F 35.1 °F 89% 29.91 in 10.0 mi ENE 8.1 mph - N/A   Overcast
6:52 AM 37.9 °F 30.5 °F 34.0 °F 86% 29.94 in 9.0 mi NE 11.5 mph 19.6 mph N/A   Overcast
7:52 AM 37.9 °F 30.0 °F 35.1 °F 89% 29.94 in 6.0 mi NE 12.7 mph - N/A   Overcast
8:52 AM 37.9 °F 29.2 °F 35.1 °F 89% 29.94 in 5.0 mi ENE 15.0 mph - N/A   Overcast
9:52 AM 39.0 °F 30.6 °F 35.1 °F 86% 29.95 in 5.0 mi NE 15.0 mph - N/A   Overcast
10:12 AM 39.2 °F 31.2 °F 35.6 °F 87% 29.93 in 5.0 mi NE 13.8 mph - N/A   Haze
10:28 AM 39.2 °F 31.6 °F 35.6 °F 87% 29.92 in 2.5 mi NE 12.7 mph - N/A   Overcast
10:52 AM 39.0 °F 31.4 °F 37.0 °F 93% 29.94 in 1.8 mi ENE 12.7 mph - N/A   Overcast
11:30 AM 39.2 °F 30.5 °F 37.4 °F 93% 29.89 in 2.0 mi ENE 16.1 mph - N/A   Overcast
11:39 AM 39.2 °F 30.8 °F 37.4 °F 93% 29.90 in 1.8 mi NE 15.0 mph - N/A   Overcast
11:52 AM 39.9 °F 32.9 °F 37.9 °F 93% 29.91 in 1.8 mi NE 11.5 mph - N/A   Overcast
12:28 PM 39.2 °F 33.0 °F 37.4 °F 93% 29.90 in 2.0 mi ENE 9.2 mph - 0.00 in Rain Light Rain
12:48 PM 39.2 °F 33.0 °F 37.4 °F 93% 29.89 in 1.5 mi ENE 9.2 mph - 0.00 in Rain Light Rain
12:52 PM 39.9 °F 33.9 °F 37.9 °F 93% 29.90 in 1.2 mi ENE 9.2 mph - 0.00 in Rain Light Rain
1:24 PM 41.0 °F 34.3 °F 39.2 °F 93% 29.86 in 1.2 mi ENE 11.5 mph - 0.00 in Rain Light Rain
1:36 PM 41.0 °F 34.3 °F 39.2 °F 93% 29.86 in 1.8 mi ENE 11.5 mph 18.4 mph 0.00 in Rain Light Rain
1:48 PM 41.0 °F 35.2 °F 39.2 °F 93% 29.86 in 2.0 mi ENE 9.2 mph - 0.00 in Rain Light Rain
1:52 PM 41.0 °F 34.7 °F 39.0 °F 93% 29.88 in 2.5 mi ENE 10.4 mph - 0.00 in Rain Light Rain
2:26 PM 41.0 °F 35.8 °F 39.2 °F 93% 29.86 in 1.2 mi NE 8.1 mph - 0.00 in Rain Rain
2:52 PM 41.0 °F 34.7 °F 39.0 °F 93% 29.83 in 1.8 mi ENE 10.4 mph - 0.00 in Rain Light Rain
3:04 PM 41.0 °F 35.2 °F 39.2 °F 93% 29.82 in 2.0 mi ENE 9.2 mph - 0.00 in Rain Light Rain
3:36 PM 41.0 °F 34.3 °F 39.2 °F 93% 29.81 in 1.5 mi NE 11.5 mph - 0.00 in   Overcast
3:52 PM 41.0 °F 32.5 °F 39.0 °F 93% 29.79 in 1.5 mi ENE 17.3 mph - 0.00 in Rain Light Rain
4:12 PM 41.0 °F 35.2 °F 39.2 °F 93% 29.79 in 2.0 mi ENE 9.2 mph - 0.00 in Rain Light Rain
4:30 PM 41.0 °F 33.9 °F 39.2 °F 93% 29.78 in 3.0 mi NE 12.7 mph - 0.00 in   Overcast
4:52 PM 41.0 °F 34.7 °F 39.0 °F 93% 29.79 in 4.0 mi NE 10.4 mph - 0.00 in   Overcast
5:43 PM 41.0 °F 35.2 °F 39.2 °F 93% 29.78 in 2.0 mi NE 9.2 mph - N/A   Overcast
5:50 PM 41.0 °F 35.2 °F 39.2 °F 93% 29.79 in 1.5 mi NNE 9.2 mph - N/A   Overcast
5:52 PM 41.0 °F 34.7 °F 39.0 °F 93% 29.80 in 1.5 mi NNE 10.4 mph - N/A   Overcast
6:52 PM 39.9 °F 33.4 °F 37.9 °F 93% 29.81 in 1.0 mi North 10.4 mph - 0.00 in Rain Light Rain
7:42 PM 37.4 °F 29.3 °F 35.6 °F 93% 29.82 in 2.0 mi North 12.7 mph - 0.00 in Rain Light Rain
7:52 PM 37.9 °F 30.5 °F 36.0 °F 93% 29.84 in 2.0 mi North 11.5 mph - 0.00 in Rain Light Rain
8:16 PM 37.4 °F 29.8 °F 35.6 °F 93% 29.81 in 1.5 mi NE 11.5 mph - 0.00 in Snow Light Snow
8:28 PM 37.4 °F 29.8 °F 35.6 °F 93% 29.81 in 2.5 mi NNE 11.5 mph - 0.00 in Rain Light Rain
8:35 PM 37.4 °F 29.8 °F 35.6 °F 93% 29.82 in 4.0 mi NNE 11.5 mph - 0.00 in Rain Light Rain
8:52 PM 37.0 °F 28.5 °F 36.0 °F 96% 29.84 in 4.0 mi North 13.8 mph - 0.00 in   Overcast
9:52 PM 37.0 °F 26.4 °F 34.0 °F 89% 29.77 in 7.0 mi NE 20.7 mph 28.8 mph N/A   Overcast
10:52 PM 37.0 °F 29.8 °F 35.1 °F 93% 29.83 in 10.0 mi NE 10.4 mph - N/A   Overcast
11:52 PM 37.0 °F 29.8 °F 35.1 °F 93% 29.83 in 2.0 mi North 10.4 mph - 0.00 in   Overcast